[[{"header":{"parameterUnit":"m.s-1","parameterCategory":1,"la1":30.2991,"la2":30.254,"lo1":-89.0895,"lo2":-89.0444,"dy":0.0017,"dx":0.0017,"nx":28,"ny":28,"refTime":"2025-11-20T09:00:00:Z","depth":0,"parameterNumber":2,"parameterNumberName":"U-component_of_WINDS"},"data":[0,0,0,0,0,0,0,0,0,0,0,0,0,0,0,0,0,0,0,0,0,0,0,0,0,0,0,0,0,0,0,0,0,0,0,0,0,0,0,0,0,0,0,0,0,0,0,0,0,0,0,0,0,0,0,0,0,0,-0.742,-0.742,0,-0.7462,-0.7462,-0.7463,-0.7446,-0.7445,-0.7444,-0.7443,-0.7486,-0.7488,-0.749,0,0,0,0,0,0,0,0,0,0,0,0,0,-0.7327,-0.7328,-0.742,-0.742,-0.7421,-0.7462,-0.7462,-0.7463,-0.7446,-0.7445,-0.7444,-0.7443,-0.7486,-0.7488,-0.7491,0,0,0,0,0,0,0,0,0,0,0,0,0,-0.7368,-0.7329,-0.742,-0.7418,-0.7418,-0.7461,-0.7462,-0.7463,-0.7447,-0.7445,-0.7444,-0.7442,-0.7485,-0.7488,-0.7491,-0.7539,0,0,-0.75,-0.7502,0,0,0,0,0,0,0,0,-0.7365,-0.7371,-0.7417,-0.7418,-0.7418,-0.7447,-0.7445,-0.7488,-0.7447,-0.7436,-0.7443,-0.7442,-0.7475,-0.7478,-0.7489,-0.7541,-0.7543,-0.75,-0.7502,-0.7504,-0.7505,0,0,0,0,0,0,0,-0.7363,-0.7369,-0.7436,-0.7418,-0.7419,-0.7415,-0.7419,-0.7453,-0.7463,-0.7437,-0.7436,-0.7441,-0.7474,-0.7486,-0.749,-0.7543,-0.75,-0.7503,-0.7505,-0.7506,-0.7638,-0.7639,0,0,0,0,0,0,-0.736,-0.7367,-0.7435,-0.7438,-0.7388,-0.7418,-0.7422,-0.7439,-0.7462,-0.7464,-0.7442,-0.744,-0.7482,-0.7487,-0.7492,-0.755,-0.7504,-0.7507,-0.7508,-0.7636,-0.7638,-0.764,0,0,0,0,0,0,-0.7358,-0.7366,-0.7433,-0.7402,-0.741,-0.7421,-0.744,-0.7441,-0.7453,-0.7466,-0.7468,-0.7452,-0.7481,-0.7487,-0.7528,-0.7551,-0.7508,-0.7511,-0.7634,-0.7637,-0.7639,-0.7667,0,0,0,0,0,0,-0.7355,-0.7365,-0.7383,-0.7403,-0.7412,-0.7468,-0.7442,-0.7443,-0.7458,-0.7456,-0.7477,-0.7479,-0.748,-0.7523,-0.7531,-0.7555,-0.7513,-0.7632,-0.7635,-0.7638,-0.7664,-0.767,-0.7675,0,0,0,0,0,-0.7352,-0.7389,-0.7384,-0.7393,-0.7435,-0.747,-0.7475,-0.7476,-0.746,-0.7479,-0.7488,-0.7478,-0.7548,-0.7527,-0.7536,-0.7561,-0.763,-0.7634,-0.7638,-0.7661,-0.7669,-0.7675,0,0,0,0,0,0,-0.7372,-0.7392,-0.7386,-0.7431,-0.7449,-0.7467,-0.749,-0.7484,-0.7507,-0.7504,-0.7504,-0.7509,-0.755,-0.756,-0.7537,-0.7609,-0.7587,-0.7592,-0.7602,-0.7609,-0.7615,-0.7611,-0.7516,0,0,0,0,0,-0.7382,-0.7409,-0.7424,-0.7463,-0.7472,-0.748,-0.7495,-0.7494,-0.7513,-0.752,-0.7531,-0.755,-0.7576,-0.7593,-0.7617,-0.7665,-0.767,-0.7687,-0.7693,-0.7697,-0.7702,-0.7729,-0.7737,-0.7652,-0.7652,-0.7652,0,0,-0.7403,-0.7417,-0.7433,-0.7467,-0.7481,-0.7509,-0.7486,-0.7516,-0.7537,-0.7524,-0.7563,-0.7573,-0.7593,-0.7637,-0.7657,-0.7646,-0.7727,-0.7702,-0.7706,-0.7708,-0.7733,-0.7742,-0.7749,-0.7654,-0.7654,-0.7653,0,0,-0.7455,-0.7468,-0.7501,-0.7515,-0.7537,-0.7542,-0.755,-0.7569,-0.7575,-0.7614,-0.7605,-0.763,-0.7674,-0.769,-0.7703,-0.7762,-0.7754,-0.777,-0.7799,-0.7825,-0.7832,-0.7838,-0.7859,-0.7867,-0.7774,-0.7774,-0.7774,0,-0.7477,-0.7519,-0.7519,-0.755,-0.7566,-0.7556,-0.7591,-0.7604,-0.7632,-0.7643,-0.7631,-0.7687,-0.77,-0.7748,-0.7763,-0.7774,-0.7783,-0.7767,-0.7831,-0.7837,-0.7843,-0.7863,-0.7871,-0.7776,-0.7776,-0.7776,-0.7776,0,-0.7546,-0.7575,-0.76,-0.7627,-0.7646,-0.7678,-0.7684,-0.7702,-0.77,-0.7707,-0.7747,-0.7763,-0.7791,-0.7802,-0.78,-0.785,-0.7843,-0.7831,-0.7808,-0.7853,-0.7872,-0.7879,-0.7779,-0.7778,-0.7778,-0.7777,0,0,-0.7611,-0.764,-0.7649,-0.7662,-0.7685,-0.7707,-0.7739,-0.7767,-0.7783,-0.7803,-0.783,-0.7869,-0.7858,-0.7873,-0.7873,-0.7896,-0.7942,-0.7881,-0.7882,-0.7892,-0.7999,-0.8008,-0.8017,-0.7937,-0.7939,-0.794,-0.7997,0,-0.7665,-0.7722,-0.7724,-0.7776,-0.7803,-0.7795,-0.7823,-0.7841,-0.7848,-0.7872,-0.788,-0.7908,-0.7891,-0.79,-0.7923,-0.7932,-0.7964,-0.7928,-0.7963,-0.7964,-0.7958,-0.8027,-0.8037,-0.809,-0.8005,-0.8006,-0.8007,0,-0.7735,-0.7758,-0.7813,-0.7833,-0.7844,-0.787,-0.7895,-0.7919,-0.7938,-0.7942,-0.796,-0.7957,-0.799,-0.7966,-0.8013,-0.7988,-0.8003,-0.801,-0.8012,-0.8015,-0.7988,-0.8033,-0.8107,-0.8115,-0.8019,-0.8018,-0.8017,0,-0.7778,-0.7822,-0.7861,-0.7872,-0.7896,-0.7914,-0.7925,-0.7944,-0.796,-0.7983,-0.7994,-0.802,-0.8034,-0.8055,-0.8059,-0.8041,-0.8106,-0.8082,-0.811,-0.811,-0.8124,-0.8123,-0.8202,-0.8133,-0.8133,-0.8133,-0.8133,0,-0.7838,-0.7872,-0.788,-0.7904,-0.7942,-0.7945,-0.7982,-0.7992,-0.8009,-0.8034,-0.8029,-0.8053,-0.8057,-0.8083,-0.8086,-0.8124,-0.8131,-0.8135,-0.8135,-0.8135,-0.8135,-0.8145,-0.8142,-0.8135,-0.8134,-0.8134,-0.8134,0,-0.7892,-0.7899,-0.7941,-0.796,-0.7966,-0.7994,-0.801,-0.8034,-0.804,-0.8073,-0.8081,-0.8092,-0.8122,-0.8128,-0.8163,-0.8165,-0.8211,-0.8208,-0.8204,-0.8204,-0.8232,-0.8229,-0.832,-0.8333,-0.8255,-0.8256,-0.8257,0,-0.7929,-0.7955,-0.7978,-0.7995,-0.8007,-0.8035,-0.8052,-0.8055,-0.8074,-0.8099,-0.8119,-0.8148,-0.8172,-0.8219,-0.8231,-0.8257,-0.8255,-0.8285,-0.8259,-0.8258,-0.8256,-0.8254,-0.8257,-0.829,-0.8291,-0.8292,-0.8292,0,-0.7996,-0.7998,-0.8023,-0.805,-0.8071,-0.8092,-0.8112,-0.8127,-0.8133,-0.8154,-0.8184,-0.8202,-0.8239,-0.8268,-0.8295,-0.8306,-0.8301,-0.83,-0.8308,-0.8309,-0.8306,-0.8308,-0.8218,-0.8298,-0.8298,-0.8297,-0.8297,-0.8297,-0.8043,-0.8066,-0.8086,-0.8115,-0.813,-0.8149,-0.8172,-0.8182,-0.8208,-0.8238,-0.8238,-0.8272,-0.8292,-0.8328,-0.8341,-0.8367,-0.8358,-0.8369,-0.8372,-0.8375,-0.8378,-0.8302,-0.8372,-0.8372,-0.8372,-0.8372,-0.8371,0,-0.8109,-0.8122,-0.8148,-0.8177,-0.82,-0.8192,-0.8215,-0.8234,-0.8264,-0.8283,-0.8306,-0.8342,-0.837,-0.8384,-0.8412,-0.8431,-0.8429,-0.8438,-0.8437,-0.8439,-0.8384,-0.8375,-0.8439,-0.8439,-0.8439,-0.8439,-0.8439,-0.8439,-0.8147,-0.8186,-0.8191,-0.8238,-0.825,-0.8283,-0.8297,-0.8314,-0.833,-0.837,-0.8394,-0.8403,-0.842,-0.8449,-0.8475,-0.8478,-0.8489,-0.85,-0.8502,-0.845,-0.8443,-0.8437,-0.8428,-0.8502,-0.8502,-0.8555,-0.8555,-0.8556]},{"header":{"parameterUnit":"m.s-1","parameterCategory":1,"la1":30.2991,"la2":30.254,"lo1":-89.0895,"lo2":-89.0444,"dy":0.0017,"dx":0.0017,"nx":28,"ny":28,"refTime":"2025-11-20T09:00:00:Z","depth":0,"parameterNumber":3,"parameterNumberName":"V-component_of_WINDS"},"data":[0,0,0,0,0,0,0,0,0,0,0,0,0,0,0,0,0,0,0,0,0,0,0,0,0,0,0,0,0,0,0,0,0,0,0,0,0,0,0,0,0,0,0,0,0,0,0,0,0,0,0,0,0,0,0,0,0,0,-1.5651,-1.5651,0,-1.5692,-1.5693,-1.5693,-1.5681,-1.568,-1.5679,-1.5678,-1.5716,-1.5718,-1.572,0,0,0,0,0,0,0,0,0,0,0,0,0,-1.5556,-1.5558,-1.5651,-1.5651,-1.5652,-1.5692,-1.5693,-1.5693,-1.5681,-1.568,-1.5679,-1.5678,-1.5716,-1.5718,-1.572,0,0,0,0,0,0,0,0,0,0,0,0,0,-1.5597,-1.5558,-1.5651,-1.5651,-1.5651,-1.5692,-1.5693,-1.5694,-1.5681,-1.568,-1.5679,-1.5677,-1.5715,-1.5718,-1.572,-1.5763,0,0,-1.5729,-1.573,0,0,0,0,0,0,0,0,-1.5595,-1.5601,-1.565,-1.5651,-1.5651,-1.568,-1.5673,-1.5717,-1.5681,-1.567,-1.5678,-1.5677,-1.5705,-1.5709,-1.5719,-1.5765,-1.5766,-1.5729,-1.5731,-1.5732,-1.5733,0,0,0,0,0,0,0,-1.5592,-1.5599,-1.5667,-1.5651,-1.5651,-1.5647,-1.5651,-1.5682,-1.5694,-1.567,-1.567,-1.5675,-1.5705,-1.5716,-1.572,-1.5767,-1.5729,-1.5731,-1.5733,-1.5734,-1.5849,-1.585,0,0,0,0,0,0,-1.5589,-1.5596,-1.5666,-1.5668,-1.5619,-1.565,-1.5655,-1.5672,-1.5694,-1.5696,-1.5676,-1.5674,-1.5712,-1.5717,-1.5721,-1.5772,-1.5732,-1.5734,-1.5736,-1.5848,-1.5849,-1.5851,0,0,0,0,0,0,-1.5587,-1.5596,-1.5664,-1.5632,-1.5641,-1.5653,-1.5672,-1.5674,-1.5685,-1.5698,-1.5699,-1.5686,-1.5712,-1.5717,-1.5753,-1.5773,-1.5736,-1.5738,-1.5846,-1.5848,-1.585,-1.5875,0,0,0,0,0,0,-1.5585,-1.5595,-1.5612,-1.5633,-1.5642,-1.5697,-1.5674,-1.5675,-1.569,-1.5688,-1.5707,-1.5709,-1.5711,-1.5749,-1.5756,-1.5776,-1.574,-1.5844,-1.5847,-1.5849,-1.5872,-1.5878,-1.5882,0,0,0,0,0,-1.5581,-1.5617,-1.5613,-1.5622,-1.5665,-1.5698,-1.5703,-1.5706,-1.5692,-1.5709,-1.5717,-1.5709,-1.577,-1.5753,-1.576,-1.5782,-1.5843,-1.5846,-1.5849,-1.587,-1.5877,-1.5882,0,0,0,0,0,0,-1.5596,-1.5619,-1.5616,-1.5659,-1.5677,-1.5696,-1.5717,-1.5713,-1.5733,-1.573,-1.5731,-1.5736,-1.5772,-1.5781,-1.5761,-1.5824,-1.5804,-1.5809,-1.5818,-1.5824,-1.5829,-1.5826,-1.5742,0,0,0,0,0,-1.5605,-1.5632,-1.565,-1.5686,-1.5695,-1.5705,-1.5719,-1.572,-1.5738,-1.5744,-1.5755,-1.5772,-1.5795,-1.581,-1.5831,-1.5873,-1.5877,-1.5892,-1.5897,-1.5901,-1.5905,-1.5928,-1.5934,-1.5861,-1.5861,-1.5861,0,0,-1.5622,-1.5638,-1.5655,-1.5689,-1.5703,-1.5729,-1.5711,-1.5739,-1.5758,-1.5748,-1.5783,-1.5792,-1.581,-1.5849,-1.5866,-1.5857,-1.5926,-1.5905,-1.5908,-1.591,-1.5932,-1.5939,-1.5945,-1.5864,-1.5863,-1.5863,0,0,-1.5668,-1.5683,-1.5715,-1.573,-1.5752,-1.5758,-1.5765,-1.5785,-1.5791,-1.5826,-1.5819,-1.5841,-1.5881,-1.5894,-1.5906,-1.5957,-1.595,-1.5964,-1.599,-1.6012,-1.6017,-1.6022,-1.604,-1.6047,-1.5968,-1.5968,-1.5968,0,-1.5686,-1.5728,-1.5732,-1.5761,-1.5776,-1.577,-1.5802,-1.5815,-1.5842,-1.5852,-1.5841,-1.5891,-1.5903,-1.5945,-1.5958,-1.5968,-1.5975,-1.5962,-1.6016,-1.6022,-1.6026,-1.6043,-1.605,-1.597,-1.5969,-1.5969,-1.5969,0,-1.5749,-1.5777,-1.58,-1.5829,-1.5846,-1.5877,-1.5884,-1.5901,-1.59,-1.5907,-1.5943,-1.5957,-1.5982,-1.5991,-1.599,-1.6033,-1.6027,-1.6016,-1.5996,-1.6035,-1.6051,-1.6057,-1.5972,-1.5971,-1.5971,-1.597,0,0,-1.5805,-1.5836,-1.5844,-1.5857,-1.5881,-1.5902,-1.5932,-1.5958,-1.5972,-1.5991,-1.6015,-1.6049,-1.604,-1.6053,-1.6053,-1.6073,-1.6112,-1.606,-1.606,-1.6069,-1.616,-1.6168,-1.6175,-1.6108,-1.6109,-1.611,-1.6158,0,-1.5852,-1.5906,-1.5911,-1.5959,-1.5985,-1.598,-1.6006,-1.6022,-1.6029,-1.6051,-1.6058,-1.6082,-1.6068,-1.6077,-1.6096,-1.6103,-1.613,-1.61,-1.6129,-1.613,-1.6125,-1.6184,-1.6192,-1.6237,-1.6165,-1.6166,-1.6166,0,-1.5915,-1.5937,-1.5989,-1.601,-1.602,-1.6044,-1.6068,-1.6089,-1.6107,-1.6111,-1.6127,-1.6125,-1.6154,-1.6133,-1.6172,-1.6152,-1.6164,-1.6169,-1.6171,-1.6174,-1.615,-1.6188,-1.6251,-1.6258,-1.6176,-1.6176,-1.6175,0,-1.595,-1.5993,-1.603,-1.6041,-1.6066,-1.6082,-1.6093,-1.611,-1.6126,-1.6146,-1.6156,-1.6179,-1.6191,-1.6208,-1.6212,-1.6196,-1.6251,-1.6231,-1.6254,-1.6254,-1.6266,-1.6265,-1.6332,-1.6274,-1.6274,-1.6274,-1.6273,0,-1.6002,-1.6034,-1.6046,-1.6068,-1.6103,-1.6108,-1.6141,-1.6151,-1.6167,-1.619,-1.6186,-1.6207,-1.621,-1.6232,-1.6235,-1.6267,-1.6272,-1.6275,-1.6276,-1.6276,-1.6275,-1.6283,-1.628,-1.6275,-1.6275,-1.6275,-1.6274,0,-1.6047,-1.6057,-1.6096,-1.6118,-1.6124,-1.6148,-1.6165,-1.6186,-1.6193,-1.6222,-1.6229,-1.624,-1.6265,-1.6271,-1.63,-1.6302,-1.634,-1.6337,-1.6334,-1.6334,-1.6357,-1.6355,-1.6432,-1.6442,-1.6377,-1.6378,-1.6378,0,-1.608,-1.6105,-1.6129,-1.6145,-1.6157,-1.6183,-1.6199,-1.6204,-1.6221,-1.6244,-1.6261,-1.6287,-1.6307,-1.6348,-1.6357,-1.638,-1.6377,-1.6403,-1.638,-1.638,-1.6377,-1.6376,-1.6378,-1.6407,-1.6407,-1.6408,-1.6408,0,-1.6137,-1.6141,-1.6165,-1.6192,-1.6211,-1.6232,-1.6251,-1.6264,-1.6271,-1.629,-1.6317,-1.6333,-1.6364,-1.6389,-1.6412,-1.6421,-1.6416,-1.6415,-1.6422,-1.6422,-1.642,-1.6421,-1.6346,-1.6413,-1.6413,-1.6413,-1.6412,-1.6412,-1.6177,-1.6198,-1.6219,-1.6247,-1.6262,-1.628,-1.6301,-1.6312,-1.6335,-1.6362,-1.6363,-1.6392,-1.6409,-1.6439,-1.645,-1.6472,-1.6464,-1.6473,-1.6476,-1.6478,-1.648,-1.6417,-1.6476,-1.6476,-1.6476,-1.6476,-1.6476,0,-1.6233,-1.6247,-1.6272,-1.63,-1.6322,-1.6317,-1.6338,-1.6355,-1.6382,-1.6399,-1.642,-1.6451,-1.6475,-1.6487,-1.651,-1.6525,-1.6523,-1.6531,-1.653,-1.6532,-1.6486,-1.6478,-1.6532,-1.6532,-1.6532,-1.6532,-1.6532,-1.6532,-1.6265,-1.6302,-1.6308,-1.6352,-1.6365,-1.6395,-1.6407,-1.6424,-1.6438,-1.6473,-1.6494,-1.6502,-1.6517,-1.6541,-1.6563,-1.6566,-1.6574,-1.6583,-1.6584,-1.6541,-1.6535,-1.653,-1.6522,-1.6585,-1.6585,-1.6629,-1.6629,-1.6629]}]]